[[{"header":{"parameterUnit":"m.s-1","parameterCategory":1,"la1":30.2991,"la2":30.254,"lo1":-89.0895,"lo2":-89.0444,"dy":0.0017,"dx":0.0017,"nx":28,"ny":28,"refTime":"2026-02-05T09:00:00:Z","depth":0,"parameterNumber":2,"parameterNumberName":"U-component_of_WINDS"},"data":[0,0,0,0,0,0,0,0,0,0,0,0,0,0,0,0,0,0,0,0,0,0,0,0,0,0,0,0,0,0,0,0,0,0,0,0,0,0,0,0,0,0,0,0,0,0,0,0,0,0,0,0,0,0,0,0,0,0,3.7397,3.7398,0,3.744,3.744,3.7441,3.7387,3.7385,3.7383,3.7381,3.7423,3.7426,3.7429,0,0,0,0,0,0,0,0,0,0,0,0,0,3.727,3.7272,3.7397,3.7398,3.7398,3.7439,3.744,3.7441,3.7387,3.7385,3.7383,3.7381,3.7422,3.7425,3.7429,0,0,0,0,0,0,0,0,0,0,0,0,0,3.732,3.7273,3.7397,3.7377,3.7375,3.7439,3.744,3.7441,3.7388,3.7385,3.7382,3.7379,3.7421,3.7425,3.7429,3.7515,0,0,3.7443,3.7445,0,0,0,0,0,0,0,0,3.7317,3.7325,3.7379,3.7378,3.7377,3.7405,3.741,3.7466,3.7389,3.7383,3.7381,3.7378,3.7419,3.7424,3.7438,3.7517,3.7518,3.7443,3.7446,3.7448,3.7449,0,0,0,0,0,0,0,3.7314,3.7322,3.7414,3.738,3.7379,3.7365,3.7369,3.742,3.7417,3.7383,3.738,3.7385,3.7418,3.7434,3.7438,3.7519,3.7443,3.7447,3.745,3.7451,3.7671,3.7674,0,0,0,0,0,0,3.7313,3.732,3.7413,3.7415,3.7339,3.737,3.7374,3.7399,3.7416,3.7416,3.7388,3.7383,3.7428,3.7433,3.744,3.7541,3.7448,3.7452,3.7454,3.7668,3.7672,3.7676,0,0,0,0,0,0,3.731,3.7322,3.7411,3.7367,3.7377,3.7375,3.7403,3.7401,3.7417,3.742,3.7419,3.7405,3.7426,3.7433,3.7497,3.7542,3.7454,3.7458,3.7664,3.7669,3.7674,3.7745,0,0,0,0,0,0,3.7307,3.7321,3.7353,3.7368,3.738,3.7468,3.7406,3.7404,3.7425,3.7419,3.7435,3.7435,3.7424,3.7491,3.7501,3.7546,3.7461,3.766,3.7667,3.7672,3.7738,3.7751,3.7763,0,0,0,0,0,3.7302,3.7371,3.7355,3.7367,3.742,3.747,3.7477,3.7463,3.7429,3.7461,3.7463,3.7435,3.7536,3.7498,3.7509,3.7556,3.7657,3.7665,3.7672,3.7733,3.7749,3.7762,0,0,0,0,0,0,3.7361,3.7372,3.7355,3.7431,3.745,3.7461,3.7502,3.748,3.751,3.7502,3.7484,3.7488,3.7556,3.7562,3.752,3.764,3.7591,3.7601,3.7633,3.7648,3.766,3.7657,3.7465,0,0,0,0,0,3.7383,3.7423,3.7431,3.7497,3.7507,3.7503,3.7525,3.7513,3.7532,3.7539,3.7546,3.7565,3.7601,3.7625,3.7659,3.774,3.7743,3.7778,3.779,3.78,3.7808,3.7852,3.7868,3.7699,3.7699,3.7699,0,0,3.7428,3.7439,3.7465,3.7509,3.7522,3.7564,3.751,3.7557,3.7588,3.7546,3.7606,3.7613,3.7633,3.7706,3.7738,3.7713,3.7856,3.7809,3.7817,3.782,3.7861,3.7877,3.7892,3.7704,3.7703,3.7703,0,0,3.7531,3.7544,3.7601,3.7616,3.7638,3.7635,3.7649,3.7664,3.7666,3.7727,3.7697,3.7734,3.7796,3.7812,3.7829,3.7941,3.7915,3.7952,3.8015,3.8058,3.8071,3.8083,3.8123,3.8138,3.7961,3.7961,3.7961,0,3.7584,3.7647,3.7632,3.7681,3.7701,3.7667,3.7724,3.774,3.7771,3.7786,3.7758,3.7837,3.7848,3.7924,3.7952,3.7966,3.7982,3.795,3.8071,3.8082,3.8093,3.8131,3.8146,3.7965,3.7965,3.7964,3.7964,0,3.7711,3.7755,3.7798,3.783,3.7855,3.7908,3.7902,3.7929,3.7915,3.7916,3.7978,3.7991,3.8027,3.8044,3.8031,3.8119,3.8103,3.8074,3.8023,3.8114,3.8149,3.8163,3.7971,3.797,3.7969,3.7968,0,0,3.785,3.7876,3.7892,3.7907,3.7929,3.7963,3.8015,3.8051,3.8074,3.8098,3.8141,3.8195,3.8169,3.8187,3.8176,3.8214,3.8302,3.8179,3.8179,3.8201,3.8401,3.8423,3.844,3.8286,3.8289,3.8291,3.8399,0,3.7954,3.8044,3.8034,3.8119,3.816,3.8129,3.8175,3.8194,3.8196,3.823,3.8232,3.8271,3.8233,3.8244,3.8281,3.8284,3.8342,3.8276,3.8326,3.8327,3.8321,3.8458,3.8481,3.8582,3.8413,3.8415,3.8417,0,3.8086,3.8116,3.8206,3.8224,3.8241,3.8281,3.8314,3.8348,3.8369,3.8368,3.839,3.8372,3.8424,3.8374,3.8446,3.8401,3.8421,3.8426,3.843,3.8433,3.8377,3.8464,3.8614,3.8629,3.8438,3.8437,3.8435,0,3.8179,3.8241,3.8304,3.8317,3.834,3.8369,3.838,3.8398,3.8421,3.845,3.8464,3.8498,3.8517,3.8544,3.8536,3.85,3.861,3.8559,3.861,3.8611,3.8633,3.8632,3.8787,3.8648,3.8648,3.8647,3.8647,0,3.8295,3.8352,3.8346,3.8384,3.8447,3.8434,3.8497,3.8503,3.852,3.8559,3.8535,3.8572,3.856,3.8597,3.8591,3.8651,3.866,3.866,3.8658,3.8662,3.8662,3.8674,3.8667,3.8651,3.865,3.865,3.8649,0,3.8409,3.8407,3.8473,3.8489,3.8495,3.854,3.8554,3.859,3.8591,3.8641,3.8652,3.8653,3.8695,3.8691,3.8738,3.8734,3.8809,3.8798,3.8802,3.8799,3.8851,3.8846,3.9019,3.9041,3.8888,3.8889,3.889,0,3.8482,3.8525,3.8547,3.8572,3.8585,3.8625,3.8649,3.8639,3.8664,3.8693,3.8726,3.8766,3.8797,3.8866,3.8871,3.8907,3.8896,3.8955,3.8901,3.8905,3.8897,3.8894,3.8899,3.8965,3.8966,3.8968,3.8969,0,3.8614,3.8611,3.8646,3.8682,3.8711,3.8738,3.8763,3.8785,3.8778,3.8808,3.8851,3.8875,3.8924,3.8964,3.8999,3.9009,3.8988,3.8986,3.9,3.9004,3.9004,3.9004,3.883,3.8982,3.898,3.8979,3.8979,3.8978,3.8709,3.8746,3.8768,3.8808,3.8826,3.885,3.8885,3.8892,3.8928,3.8967,3.8959,3.9008,3.9029,3.9073,3.9088,3.9126,3.9104,3.9124,3.9129,3.9134,3.914,3.8999,3.9132,3.9132,3.9131,3.9131,3.9131,0,3.8839,3.8852,3.8889,3.8925,3.8957,3.8936,3.8963,3.8991,3.9034,3.9056,3.9088,3.9139,3.9178,3.9187,3.9225,3.9253,3.9245,3.9264,3.9261,3.9264,3.9157,3.9141,3.927,3.927,3.927,3.927,3.927,3.927,3.891,3.8972,3.8972,3.9043,3.9055,3.9104,3.9121,3.9143,3.9161,3.9218,3.9251,3.9257,3.9274,3.9313,3.9349,3.935,3.9365,3.9388,3.9386,3.9285,3.9271,3.9258,3.9243,3.9391,3.9391,3.9489,3.949,3.9491]},{"header":{"parameterUnit":"m.s-1","parameterCategory":1,"la1":30.2991,"la2":30.254,"lo1":-89.0895,"lo2":-89.0444,"dy":0.0017,"dx":0.0017,"nx":28,"ny":28,"refTime":"2026-02-05T09:00:00:Z","depth":0,"parameterNumber":3,"parameterNumberName":"V-component_of_WINDS"},"data":[0,0,0,0,0,0,0,0,0,0,0,0,0,0,0,0,0,0,0,0,0,0,0,0,0,0,0,0,0,0,0,0,0,0,0,0,0,0,0,0,0,0,0,0,0,0,0,0,0,0,0,0,0,0,0,0,0,0,-6.2863,-6.2865,0,-6.3079,-6.3082,-6.3084,-6.3057,-6.3054,-6.305,-6.3047,-6.3265,-6.3274,-6.3283,0,0,0,0,0,0,0,0,0,0,0,0,0,-6.2424,-6.2432,-6.2863,-6.2865,-6.2868,-6.3079,-6.3082,-6.3085,-6.3058,-6.3054,-6.3049,-6.3045,-6.3262,-6.3273,-6.3284,0,0,0,0,0,0,0,0,0,0,0,0,0,-6.2624,-6.2434,-6.2862,-6.288,-6.2884,-6.3078,-6.3082,-6.3086,-6.3059,-6.3053,-6.3048,-6.3043,-6.3258,-6.3272,-6.3285,-6.3474,0,0,-6.3327,-6.3333,0,0,0,0,0,0,0,0,-6.2613,-6.2641,-6.2875,-6.2879,-6.2884,-6.3036,-6.3007,-6.3216,-6.306,-6.2992,-6.3047,-6.3041,-6.3193,-6.3211,-6.3263,-6.3484,-6.3494,-6.3328,-6.3336,-6.3342,-6.3346,0,0,0,0,0,0,0,-6.2599,-6.2631,-6.2948,-6.2878,-6.2884,-6.2877,-6.2899,-6.3046,-6.3119,-6.2998,-6.2996,-6.3023,-6.3194,-6.325,-6.3268,-6.3497,-6.3327,-6.334,-6.3348,-6.3353,-6.3885,-6.3891,0,0,0,0,0,0,-6.2581,-6.262,-6.2941,-6.2955,-6.2733,-6.2889,-6.2914,-6.2992,-6.3118,-6.3132,-6.3027,-6.302,-6.323,-6.3253,-6.3276,-6.3507,-6.3342,-6.3355,-6.3362,-6.3879,-6.3886,-6.3893,0,0,0,0,0,0,-6.2572,-6.261,-6.2933,-6.2787,-6.2828,-6.2902,-6.299,-6.2999,-6.3056,-6.314,-6.3152,-6.3071,-6.3227,-6.3257,-6.3426,-6.3514,-6.3361,-6.3373,-6.3872,-6.3881,-6.3889,-6.3969,0,0,0,0,0,0,-6.2559,-6.2607,-6.268,-6.2789,-6.2835,-6.308,-6.2995,-6.3007,-6.308,-6.3073,-6.3184,-6.3198,-6.3225,-6.3406,-6.3439,-6.353,-6.3384,-6.3864,-6.3876,-6.3887,-6.3959,-6.3979,-6.3997,0,0,0,0,0,-6.2544,-6.2693,-6.2684,-6.2723,-6.2929,-6.3085,-6.3111,-6.3141,-6.3087,-6.3161,-6.3215,-6.3194,-6.3499,-6.3423,-6.3461,-6.3557,-6.3859,-6.3873,-6.3886,-6.395,-6.3975,-6.3997,0,0,0,0,0,0,-6.2591,-6.2707,-6.2699,-6.2888,-6.2977,-6.308,-6.3174,-6.3166,-6.3271,-6.3261,-6.3291,-6.3317,-6.3488,-6.3539,-6.3452,-6.3747,-6.3671,-6.3693,-6.3707,-6.3732,-6.3751,-6.3735,-6.3395,0,0,0,0,0,-6.2624,-6.2742,-6.2837,-6.2994,-6.3039,-6.3099,-6.3168,-6.3183,-6.3276,-6.3313,-6.338,-6.347,-6.3586,-6.3661,-6.3773,-6.3966,-6.399,-6.405,-6.4069,-6.4085,-6.4103,-6.421,-6.4238,-6.3937,-6.3937,-6.3936,0,0,-6.2692,-6.277,-6.2842,-6.3006,-6.3076,-6.3198,-6.3131,-6.3262,-6.3352,-6.3333,-6.3497,-6.3549,-6.3651,-6.3833,-6.3917,-6.3881,-6.4192,-6.4102,-6.4113,-6.4124,-6.4226,-6.4255,-6.428,-6.3946,-6.3944,-6.3943,0,0,-6.2878,-6.2949,-6.3089,-6.3162,-6.327,-6.3309,-6.3343,-6.3448,-6.3482,-6.3648,-6.3636,-6.3743,-6.3942,-6.4016,-6.408,-6.4295,-6.4281,-6.4331,-6.4431,-6.4535,-6.4558,-6.458,-6.4657,-6.4685,-6.4349,-6.4349,-6.4349,0,-6.2949,-6.3132,-6.3161,-6.3294,-6.3366,-6.3356,-6.3498,-6.3566,-6.3705,-6.3755,-6.3713,-6.3964,-6.4032,-6.4232,-6.4285,-6.4336,-6.4375,-6.4318,-6.4553,-6.4574,-6.4595,-6.4669,-6.4698,-6.4354,-6.4354,-6.4353,-6.4353,0,-6.3214,-6.3341,-6.3441,-6.3577,-6.366,-6.3797,-6.3846,-6.3926,-6.3934,-6.3977,-6.4146,-6.4228,-6.4356,-6.4404,-6.4412,-6.4606,-6.4581,-6.4546,-6.4471,-6.4628,-6.4699,-6.4727,-6.4362,-6.436,-6.4358,-6.4357,0,0,-6.3436,-6.3588,-6.3624,-6.3686,-6.3805,-6.3904,-6.404,-6.4166,-6.4235,-6.4331,-6.4446,-6.4615,-6.4585,-6.4657,-6.4673,-6.4764,-6.4931,-6.4718,-6.4721,-6.4755,-6.515,-6.5176,-6.5208,-6.4921,-6.4927,-6.4931,-6.5141,0,-6.3635,-6.3877,-6.3907,-6.4121,-6.4239,-6.4232,-6.435,-6.4436,-6.448,-6.4586,-6.4634,-6.4754,-6.4704,-6.4748,-6.4837,-6.4891,-6.501,-6.4877,-6.5028,-6.5033,-6.5004,-6.5245,-6.5273,-6.5467,-6.5169,-6.5173,-6.5177,0,-6.3899,-6.4004,-6.4231,-6.4335,-6.4386,-6.4492,-6.4611,-6.4713,-6.481,-6.4835,-6.4917,-6.4922,-6.5062,-6.4981,-6.5174,-6.5083,-6.5147,-6.5183,-6.5191,-6.5207,-6.5115,-6.5268,-6.5529,-6.5559,-6.522,-6.5217,-6.5214,0,-6.4039,-6.4237,-6.4399,-6.4452,-6.4578,-6.4653,-6.4708,-6.48,-6.4875,-6.4979,-6.5027,-6.5145,-6.521,-6.5301,-6.5338,-6.5276,-6.553,-6.5452,-6.5555,-6.5554,-6.5609,-6.5605,-6.5885,-6.5649,-6.5649,-6.5648,-6.5647,0,-6.4258,-6.4397,-6.4464,-6.4563,-6.4719,-6.4752,-6.4905,-6.4958,-6.504,-6.5149,-6.5149,-6.5251,-6.5293,-6.5402,-6.5431,-6.5587,-6.5616,-6.5641,-6.5647,-6.5641,-6.5638,-6.5684,-6.5672,-6.5656,-6.5654,-6.5653,-6.5651,0,-6.4441,-6.4492,-6.4667,-6.4772,-6.4802,-6.4912,-6.5002,-6.5098,-6.5141,-6.5279,-6.5313,-6.5381,-6.5509,-6.5555,-6.571,-6.573,-6.5911,-6.5905,-6.5879,-6.588,-6.5982,-6.5972,-6.6301,-6.6346,-6.608,-6.6082,-6.6084,0,-6.4578,-6.4685,-6.4802,-6.4876,-6.4935,-6.5053,-6.513,-6.5167,-6.5247,-6.5366,-6.5448,-6.5575,-6.568,-6.5885,-6.5947,-6.6066,-6.6064,-6.6171,-6.6081,-6.6073,-6.6066,-6.606,-6.6071,-6.6188,-6.619,-6.6193,-6.6194,0,-6.4816,-6.4836,-6.4947,-6.5068,-6.516,-6.5256,-6.5349,-6.5409,-6.546,-6.5549,-6.5681,-6.5762,-6.5922,-6.6049,-6.6171,-6.6227,-6.622,-6.6222,-6.6253,-6.6248,-6.6229,-6.6242,-6.5925,-6.6215,-6.6213,-6.6211,-6.621,-6.6209,-6.4981,-6.5076,-6.5174,-6.5298,-6.5372,-6.546,-6.5556,-6.5612,-6.5723,-6.5856,-6.5871,-6.6013,-6.6108,-6.6271,-6.6333,-6.6444,-6.6415,-6.6458,-6.647,-6.648,-6.6488,-6.6211,-6.6466,-6.6466,-6.6465,-6.6465,-6.6464,0,-6.522,-6.5282,-6.5396,-6.5527,-6.5625,-6.5611,-6.5714,-6.5796,-6.5922,-6.6011,-6.6114,-6.6266,-6.6389,-6.6462,-6.6586,-6.6661,-6.6661,-6.6692,-6.6687,-6.67,-6.6507,-6.6469,-6.669,-6.669,-6.669,-6.669,-6.669,-6.669,-6.5355,-6.5516,-6.5548,-6.5745,-6.5807,-6.5947,-6.6007,-6.6088,-6.616,-6.633,-6.6433,-6.648,-6.6563,-6.6693,-6.6805,-6.6823,-6.6869,-6.6904,-6.6919,-6.6737,-6.6714,-6.6692,-6.6656,-6.6913,-6.6914,-6.7104,-6.7105,-6.7107]}]]